EW9945 Weather Reports


time (UTC)temp
C
wind
direction
speed
KPH
gust
KPH
rain 1hr
cm
rain 24hr
cm
rain mn
cm
humidity
%
barometer
mb
20260509184522 10 121 3.2 17.7 0.05 0.97 0.53 92 1008.0
20260509183022 10 165 1.6 12.9 0.05 0.97 0.53 92 1008.0
20260509181521 10 116 3.2 14.5 0.08 0.97 0.53 92 1008.0
20260509180018 10 151 3.2 8.0 0.05 0.94 0.51 92 1008.1
20260509174518 10 154 0.0 1.6 0.03 0.91 0.48 92 1008.2
20260509173018 10 154 0.0 6.4 0.03 0.91 0.48 92 1008.2
20260509171516 10 154 0.0 4.8 0.03 0.89 0.46 92 1008.1
20260509170015 10 119 0.0 12.9 0.03 0.89 0.46 92 1008.2
20260509164512 10 144 1.6 8.0 0.03 0.89 0.46 92 1008.1
20260509163018 9 144 0.0 11.3 0.03 0.89 0.46 92 1008.1
20260509161512 9 148 1.6 11.3 0.00 0.86 0.43 92 1008.1
20260509160009 9 111 3.2 19.3 0.00 0.86 0.43 92 1008.3
20260509154506 9 126 1.6 14.5 0.00 0.86 0.43 91 1008.4
20260509153011 9 163 1.6 17.7 0.00 0.86 0.43 91 1008.6
20260509151504 9 120 3.2 14.5 0.00 0.86 0.43 91 1008.7
20260509150008 9 130 1.6 14.5 0.00 0.86 0.43 91 1008.9
20260509144512 9 150 1.6 14.5 0.00 0.86 0.43 91 1008.7
20260509143013 9 107 4.8 12.9 0.00 0.86 0.43 91 1008.6
20260509141502 8 187 1.6 12.9 0.00 0.86 0.43 91 1008.6
20260509140116 8 139 0.0 14.5 0.03 0.86 0.43 91 1008.8
20260509134600 8 155 3.2 12.9 0.05 0.86 0.43 91 1009.0
20260509133104 8 114 1.6 11.3 0.05 0.86 0.43 91 1009.1
20260509131602 8 136 0.0 12.9 0.05 0.86 0.43 91 1009.1
20260509130106 8 146 1.6 16.1 0.03 0.84 0.41 91 1009.2
20260509124606 8 138 3.2 12.9 0.00 0.81 0.38 91 1009.2
20260509123055 8 157 1.6 11.3 0.00 0.81 0.38 91 1009.3
20260509121601 8 124 0.0 11.3 0.03 0.81 0.38 92 1009.4
20260509120051 8 113 0.0 8.0 0.05 0.81 0.38 92 1009.5
20260509114551 8 124 0.0 3.2 0.13 0.81 0.38 92 1009.6
20260509113056 8 124 0.0 8.0 0.15 0.81 0.38 92 1009.7
20260509111556 8 176 1.6 4.8 0.18 0.79 0.36 92 1009.8
20260509110050 8 176 1.6 9.7 0.20 0.76 0.33 92 1009.9
20260509104548 7 160 1.6 17.7 0.20 0.71 0.28 92 1009.8
20260509103046 7 179 0.0 0.0 0.20 0.66 0.23 92 1009.8
20260509101545 7 179 0.0 0.0 0.20 0.64 0.20 92 1009.8
20260509100044 7 179 0.0 0.0 0.18 0.56 0.13 92 1009.6
20260509094544 7 179 0.0 3.2 0.18 0.51 0.08 92 1009.6
20260509093043 7 179 0.0 4.8 0.15 0.48 0.05 92 1009.6
20260509091540 7 180 0.0 0.0 0.10 0.43 0.00 92 1009.5
20260509090041 7 180 0.0 0.0 0.05 0.41 0.38 92 1009.8
20260509084542 7 180 0.0 0.0 0.03 0.36 0.33 92 1010.1
20260509083047 7 180 0.0 4.8 0.03 0.36 0.33 92 1010.1
20260509081537 7 180 0.0 0.0 0.03 0.36 0.33 92 1010.1
20260509080036 7 180 0.0 0.0 0.03 0.36 0.33 92 1010.1
20260509074537 7 180 0.0 0.0 0.03 0.36 0.33 91 1010.0
20260509073038 7 180 0.0 0.0 0.00 0.33 0.30 92 1010.4
20260509071535 7 180 0.0 0.0 0.00 0.33 0.30 91 1010.4
20260509070036 7 180 0.0 0.0 0.00 0.33 0.30 91 1010.4
20260509064536 7 180 0.0 3.2 0.00 0.33 0.30 91 1010.6
20260509063035 7 180 0.0 4.8 0.03 0.33 0.30 91 1010.8
20260509061540 8 180 0.0 0.0 0.03 0.33 0.30 91 1011.3
20260509060037 8 180 0.0 0.0 0.03 0.33 0.30 91 1011.5
20260509054533 8 180 0.0 0.0 0.05 0.33 0.30 91 1011.6
20260509053048 8 180 0.0 1.6 0.10 0.30 0.28 91 1011.8
20260509051533 8 180 0.0 0.0 0.15 0.30 0.28 91 1011.9
20260509050035 8 180 0.0 8.0 0.18 0.30 0.28 91 1011.9
20260509044534 8 183 0.0 6.4 0.18 0.28 0.25 90 1011.9
20260509043031 8 223 0.0 4.8 0.13 0.23 0.20 90 1012.2
20260509041540 8 226 0.0 0.0 0.05 0.15 0.13 90 1012.2
20260509040032 8 226 0.0 0.0 0.05 0.13 0.10 89 1011.8
20260509034531 8 226 0.0 0.0 0.05 0.10 0.08 89 1011.9
20260509033030 8 226 0.0 0.0 0.05 0.10 0.08 89 1011.9
20260509031531 8 226 0.0 1.6 0.05 0.10 0.08 88 1012.1
20260509030031 8 228 1.6 6.4 0.05 0.13 0.08 87 1012.2
20260509024530 8 222 0.0 9.7 0.03 0.10 0.05 86 1012.2
20260509023029 8 221 0.0 6.4 0.00 0.08 0.03 86 1012.2
20260509021529 9 229 0.0 11.3 0.00 0.08 0.03 85 1012.1
20260509020029 9 165 0.0 6.4 0.00 0.28 0.03 85 1012.0
20260509014527 9 198 1.6 9.7 0.00 0.28 0.03 85 1011.8
20260509013029 9 144 0.0 6.4 0.00 0.28 0.03 84 1011.5
20260509011530 10 138 0.0 12.9 0.00 0.28 0.03 81 1011.3
20260509010039 10 85 0.0 3.2 0.00 0.28 0.03 79 1011.2
20260509004529 10 80 0.0 0.0 0.00 0.28 0.03 79 1011.0
20260509003026 10 80 0.0 0.0 0.00 0.28 0.03 79 1010.8
20260509001526 10 80 0.0 1.6 0.03 0.28 0.03 80 1010.6
20260509000025 10 80 0.0 4.8 0.03 0.28 0.03 81 1010.7
20260508234526 10 131 0.0 4.8 0.03 0.28 0.03 80 1010.4
20260508233026 10 143 0.0 4.8 0.03 0.28 0.03 77 1010.2
20260508231525 12 175 0.0 8.0 0.00 0.25 0.00 67 1010.2
20260508230036 13 110 1.6 9.7 0.00 0.25 0.00 55 1010.0
20260508224534 13 281 0.0 1.6 0.00 0.25 0.00 50 1009.7
20260508223022 14 282 0.0 0.0 0.00 0.25 0.00 53 1009.8
20260508221537 13 282 0.0 1.6 0.00 0.25 0.00 50 1009.9
20260508220021 13 281 0.0 3.2 0.00 0.25 0.00 51 1009.8
20260508214521 13 162 0.0 3.2 0.00 0.25 0.00 51 1010.1
20260508213024 13 160 0.0 3.2 0.00 0.25 0.00 52 1009.9
20260508211519 13 153 0.0 4.8 0.00 0.25 0.00 52 1010.0
20260508210020 13 277 0.0 3.2 0.00 0.25 0.00 49 1010.0
20260508204520 14 299 1.6 14.5 0.00 0.25 0.00 48 1010.0
20260508203016 15 348 0.0 8.0 0.00 0.25 0.00 50 1010.3
20260508201514 13 281 6.4 14.5 0.00 0.25 0.00 50 1010.4
20260508200013 13 213 4.8 32.2 0.00 0.25 0.00 50 1010.5
20260508194513 13 299 8.0 19.3 0.00 0.25 0.00 48 1010.6
20260508193009 13 284 1.6 19.3 0.00 0.25 0.00 54 1010.9
20260508191509 12 320 14.5 27.4 0.00 0.25 0.00 53 1011.0
20260508190008 13 289 9.7 19.3 0.00 0.25 0.00 53 1011.2